Find Starlink 36885

NORAD ID: 68049 Int'l Des: 2026-041 Owner: SPXS Country: US Constellation: starlink operational
LEOCIRCULAR

Live-Position

3D-Globus wird geladen...

Über Starlink 36885

Beschreibung wird geladen...

Nächste Überflüge

Passes for default location (London). Set your location on the main map for personalized predictions.

Höhenverlauf

Loading altitude history...

Zweizeiliger Elementsatz

1 68049U 26041K 26107.25003472 -.01946175 00000-0 -52151-1 0 9999
2 68049 53.1645 231.4305 0001204 88.5386 243.9164 15.40917211 5809
Epoch: 17. Apr. 2026 • Age: 10 hours

Aktueller Status

Höhe 448.4 km
Geschwindigkeit 7.65 km/s
Subsatellitenpunkt 19.30°N, 165.34°E
Startdatum 2. März 2026
Alter 0.1 years
Typ internet

Technische Details

Klassifizierung Payload
Masse 575.00 kg
Trockenmasse 530.00 kg
Gesamtmasse 575.00 kg
Länge 0.30 m
Durchmesser 4.10 m
Spannweite 29.00 m
Form Box + pan
Hersteller SPXS
Bus-Typ Starlink V2MO
Phasenstatus In Orbit
Besitzer/Staat SPXS/US

Most Searched